Location: Lecco
(45.8566°N, 9.3977°E)
Time: 18:22:49
(UTC+02:00)

S-56A Canister/Altair - Pass Details

Date: 28 July 2019
Orbit: 633 x 2499 km, 38.9° (Epoch: 22 August)

Event Time Altitude Azimuth Distance (km) Brightness Sun altitude
Rises 10:06:45 0° 274° (W) 5,213 11.3 40.7°
Reaches altitude 10° 10:09:54 10° 270° (W) 4,428 11.1 41.2°
Maximum altitude 10:22:17 56° 198° (SSW) 2,723 10.9 43.3°
Drops below altitude 10° 10:36:49 10° 126° (SE) 5,128 12.7 45.6°
Sets 10:40:47 0° 122° (ESE) 6,061 12.8 46.3°
